Find Starlink 2593

NORAD ID: 48404 Int'l Des: 2021-038 Owner: SPXS Country: US Constellation: starlink operational
LEOCIRCULAR

Aktuelle Ansicht

3D-Globus wird geladen...

Über Starlink 2593

Beschreibung wird geladen...

Nächste Überflüge

Passes for default location (London). Set your location on the main map for personalized predictions.

Höhenverlauf

Loading altitude history...

Zweizeiliger Elementsatz

1 48404U 21038BD 26149.89111994 .00011713 00000-0 38871-3 0 9991
2 48404 53.1593 314.9796 0001325 100.4346 259.6804 15.31693312279888
Epoch: 29. Mai 2026 • Age: 14 hours

Aktueller Status

Höhe 482.1 km
Geschwindigkeit 7.62 km/s
Subsatellitenpunkt -33.87°S, 135.06°W
Startdatum 4. Mai 2021
Alter 5 years
Typ internet

Technische Details

Klassifizierung Payload
Masse 260.00 kg
Trockenmasse 248.00 kg
Gesamtmasse 260.00 kg
Länge 0.20 m
Durchmesser 2.80 m
Spannweite 9.00 m
Form Box + pan
Hersteller SPXS
Bus-Typ Starlink
Phasenstatus In Orbit
Besitzer/Staat SPXS/US

Most Searched